SCP
0 0 0 0 0 0 0 0 0 0 0 0 0 0 0 0 0 0 0 0 0 0 0 0 0 0 0 0 0 0 0 0 0 0 0 0 0 0
0 0 0 0 0 0 0 0 0 0 0 0 0 0 0 0 0 0 0 0 0 0 0 0 0 0 0 0 0 0 0 0 0 0 0 0 0 0
0 0 0 0 0 0 0 0 0 0 0 0 0 0 0 0 0 0 0 0 0 0 0 0 0 0 0 0 0 0 0 0 0 0 0 0 0 0
0 0 0 0 0 0 0 0 0 0 0 0 0 0 0 0 0 0 0 0 0 0 0 0 0 0 0 0 0 0 0 0 0 0 0 0 0 0
0 0 0 0 0 0 0 0 0 0 0 0 0 0 0 0 0 0 0 0 0 0 0 0 0 0 0 0 0 0 0 0 0 0 0 0 0 0
0 0 0 0 0 0 0 0 0 0 0 0 0 0 0 0 0 0 0 0 0 0 0 0 0 0 0 -0 0 -0 0 0 0 0 0 0 0 0
0 0 0 0 0 0 0 0 0 0 0 0 0 0 0 0 0 0 0 0 0 0 0 0 0 0 0 0 0 -0 -0 0 0 0 0 0 0 0
0 0 0 0 0 0 0 0 0 0 0 0 0 0 0 0 0 0 0 0 0 -0 0 0 0 0 0 0 0 0 0 0 0 0 0 0 0 0
0 0 0 0 0 0 0 0 0 0 0 0 0 0 0 0 0 0 0 0 0 0 0 0 0 0 0 0 0 -0 0 -0 -0 -0 0 0 0 0
0 0 0 0 0 0 0 0 0 0 0 0 0 0 0 0 0 0 0 0 0 0 0 0 0 0 0 0 0 0 -0 -0 -0 -0 0 0 0 0
0 0 0 0 0 0 0 0 0 0 0 0 0 0 0 0 0 0 0 0 0 0 0 0 0 0 0 0 0 0 -0 -0 -0 -0 0 0 0 0
0 0 0 0 0 0 0 0 0 0 0 0 0 0 0 0 0 0 0 -0 0 0 0 0 0 0 0 0 0 0 0 0 0 0 0 0 0 0
0 0 0 0 0 0 0 0 0 0 0 0 0 0 0 0 0 0 0 0 0 0 0 0 0 -0 -0 -0 -0 0 0 0 0 0 0 0 0 0
0 0 0 0 0 0 0 0 0 0 0 0 0 0 0 0 0 0 0 0 0 0 0 0 0 -0 -0 -0 -0 -0 0 -0 0 0 0 0 0 0
0 0 0 0 0 0 0 0 0 0 0 0 0 0 0 0 0 -0 -0 0 0 0 0 0 0 0 -0 -0 -0 0 0 0 0 0 0 0 0 0
0 0 0 0 0 0 0 0 0 0 0 0 0 0 0 0 0 0 0 -0 -0 0 0 -0 0 -0 -0 0 0 0 0 0 0 0 0 0 0 0
0 0 0 0 0 0 0 0 0 0 0 0 0 0 0 0 0 0 0 -0 0 0 0 -0 0 -0 -0 0 0 0 0 0 0 0 0 0 0 0
0 0 0 0 0 0 0 0 0 0 0 0 0 0 0 0 0 0 0 0 0 0 0 0 -0 -0 -0 0 0 0 0 0 0 -0 0 0 0 0
0 0 0 0 0 0 0 0 0 0 0 0 0 0 0 0 -0 -0 -0 0 0 0 0 0 0 0 -0 0 -0 0 0 0 0 0 0 0 0 0
0 0 0 0 0 0 0 0 0 0 0 0 0 0 0 0 -0 -0 -0 -0 0 0 0 0 -0 -0 -0 0 0 -0 0 0 0 0 0 0 0 0
0 0 0 0 0 0 0 0 0 0 0 0 0 0 0 0 0 -0 -0 -0 -0 -0 0 0 0 -0 -0 0 0 -0 0 0 0 0 0 0 0 0
0 0 0 0 0 0 0 0 0 0 0 0 0 0 0 0 0 0 -0 -0 -0 -0 -0 0 -0 0 -0 0 0 0 -0 0 0 0 0 0 0 0
0 0 0 0 0 0 0 0 0 0 0 0 0 0 0 0 0 0 -0 -0 -0 -0 -0 0 -0 0 0 0 0 0 0 -0 0 0 0 0 0 0
Wind_Speed_500mb
44 44 31 27 29 30 34 39 40 60 68 57 62 57 46 56 60 65 68 68 66 70 70 72 69 69 64 58 59 59 57 59 57 51 49 49 63 62
43 32 24 29 32 37 40 41 45 51 68 60 59 53 55 63 71 78 65 71 74 70 68 62 62 65 62 60 62 62 59 57 59 54 50 48 60 60
35 34 30 31 33 32 35 39 44 45 57 64 62 62 63 71 72 61 61 66 63 60 60 61 60 65 66 54 59 60 62 58 59 56 50 48 51 59
21 26 31 33 38 42 47 49 55 59 62 66 64 61 57 62 60 56 56 57 59 59 56 54 60 59 60 54 49 52 59 60 58 55 49 51 48 48
26 31 35 40 43 42 45 52 59 48 45 53 66 67 59 54 57 57 59 55 53 52 50 51 52 54 55 59 64 50 49 50 52 49 46 50 47 48
29 35 39 36 40 46 57 55 48 48 52 53 57 59 58 59 55 57 55 59 61 54 55 55 51 51 52 42 36 45 41 46 41 39 41 46 41 42
28 31 30 37 46 44 47 49 51 55 59 52 56 61 59 61 57 55 62 56 58 52 50 50 48 43 49 45 42 46 45 41 31 37 36 38 35 36
26 30 35 33 34 40 37 42 49 56 57 52 55 57 58 60 48 58 62 64 63 61 54 56 49 50 45 42 40 30 29 25 30 39 32 26 30 31
26 29 34 28 40 43 51 55 58 42 36 43 51 50 56 59 64 67 60 55 57 58 52 62 52 54 49 41 42 40 31 32 35 35 32 22 25 21
23 33 33 32 45 51 51 58 53 39 32 37 44 49 55 61 48 44 49 55 57 50 47 53 53 53 48 44 39 42 48 43 43 40 31 20 15 17
33 25 29 37 46 49 55 55 49 43 25 37 50 43 38 36 37 46 50 52 55 60 52 43 44 45 43 32 31 34 35 37 32 29 28 22 14 11
25 27 32 36 44 50 54 48 47 40 46 43 34 37 32 34 34 35 39 45 50 58 44 45 39 34 25 18 28 27 25 28 25 22 25 23 13 9
34 33 21 41 46 47 42 39 36 42 37 39 40 36 36 36 38 32 28 40 51 53 56 41 42 32 31 37 38 25 21 22 18 16 23 16 9 24
36 36 31 35 38 32 32 30 32 31 36 46 33 38 41 39 40 36 35 39 40 45 46 27 36 32 29 35 34 25 16 11 15 12 16 19 18 14
34 31 28 32 31 28 28 29 32 35 37 45 39 39 36 39 41 36 35 33 33 33 37 13 25 27 23 26 30 36 22 11 7 15 12 17 22 20
35 31 37 42 22 27 27 28 32 31 34 36 45 35 34 36 38 35 35 38 37 36 42 11 18 22 27 21 19 25 21 14 5 3 22 18 14 15
42 48 49 28 26 31 25 26 30 30 34 36 39 38 37 39 33 29 35 34 32 35 34 36 44 20 16 19 23 16 19 14 2 8 14 23 22 19
50 49 42 26 28 34 30 22 29 30 35 39 29 31 35 39 32 29 34 33 33 30 30 36 37 36 15 14 16 13 16 9 9 9 10 21 23 26
47 44 34 24 32 34 29 23 29 33 38 27 34 25 32 30 32 30 27 33 33 26 26 31 32 32 27 31 3 4 16 15 9 13 5 3 17 24
44 44 36 31 32 33 29 26 34 39 35 27 31 20 26 28 26 34 28 29 29 35 26 25 28 25 19 22 17 7 2 6 6 8 10 2 2 11
44 47 43 34 33 36 37 35 41 40 31 24 23 24 23 24 19 25 31 28 23 28 25 31 25 14 7 8 22 6 4 3 1 3 5 7 6 7
40 42 46 47 44 40 40 41 42 33 23 24 26 30 21 24 15 22 22 32 27 27 25 16 20 17 17 15 22 3 10 10 2 4 4 5 10 14
43 43 45 43 39 42 47 47 42 35 30 31 28 25 21 21 13 19 18 23 23 29 24 15 19 18 15 13 10 13 11 8 7 3 1 3 4 2
Wind_Direction_500mb
298 300 291 283 294 287 289 297 297 295 299 303 303 310 302 294 297 292 295 295 295 292 290 290 290 287 284 283 280 285 292 287 285 290 292 270 260 259
297 291 291 288 290 298 300 296 295 294 296 302 304 304 298 295 298 296 289 290 293 295 294 296 293 289 285 281 276 282 290 292 284 283 290 285 266 264
300 306 309 309 309 302 300 301 303 305 303 303 303 304 302 303 304 300 298 298 298 298 294 292 289 292 287 287 273 279 287 291 288 279 282 286 278 271
309 309 305 303 298 300 298 294 288 288 295 304 304 304 310 307 307 307 306 299 297 300 297 296 296 289 290 287 280 284 288 287 286 278 277 276 287 277
314 306 300 299 299 297 288 290 298 301 301 300 300 300 306 307 309 305 305 308 302 304 297 294 298 299 296 288 267 275 285 281 277 277 275 278 284 279
288 304 304 303 293 294 299 310 312 308 307 303 301 304 307 309 311 312 314 308 308 307 302 301 294 290 298 294 279 277 281 280 280 280 274 276 285 292
309 301 295 294 300 304 312 314 309 315 315 308 304 308 312 314 313 310 309 315 314 312 309 307 306 301 292 292 286 273 267 275 287 297 275 271 286 290
307 291 293 305 305 307 303 299 306 307 307 307 307 308 309 307 314 311 311 313 311 307 313 303 305 303 302 296 289 291 282 264 300 301 298 271 281 293
294 295 297 299 289 291 294 301 306 310 305 307 306 308 308 309 308 307 306 305 301 307 309 301 302 298 299 293 288 291 300 293 296 299 290 268 274 284
286 282 293 294 286 301 308 313 317 313 304 311 303 300 300 304 307 307 306 305 309 309 314 301 303 297 304 287 280 275 271 280 288 293 278 282 245 263
280 293 291 291 292 304 312 317 318 322 312 292 292 297 310 308 313 311 311 307 303 314 315 307 306 304 304 291 295 281 272 272 279 283 264 261 217 237
292 279 285 293 296 306 313 316 319 325 326 330 334 333 323 322 315 309 317 313 313 312 308 308 312 316 322 319 335 296 263 266 273 267 249 249 219 210
283 291 276 287 295 304 310 316 326 330 332 338 334 327 328 321 315 311 315 320 321 310 314 295 299 301 290 306 306 308 305 268 261 276 233 227 253 196
294 294 278 285 308 313 316 330 338 337 339 330 336 334 325 327 325 324 322 323 328 330 328 280 278 292 296 299 305 314 275 262 253 263 226 218 222 211
298 301 296 308 322 331 338 338 329 334 323 331 336 328 331 331 329 325 321 325 335 345 341 280 269 279 274 288 305 317 357 326 238 236 223 216 214 215
299 299 299 312 308 317 322 320 313 322 320 326 317 329 331 331 331 337 337 339 342 352 9 343 327 292 285 287 289 313 332 332 311 205 200 204 198 221
282 285 289 294 290 300 296 301 310 316 317 310 323 335 334 332 337 347 349 338 340 344 355 6 356 309 289 286 282 301 318 317 189 156 178 193 193 198
275 278 279 277 277 292 299 303 304 309 301 315 327 325 327 334 344 354 350 348 342 341 355 3 355 353 350 300 283 302 332 295 179 114 135 173 188 197
274 279 282 268 276 284 291 290 293 293 299 309 311 326 327 334 347 344 344 348 346 355 2 359 356 6 17 26 354 295 16 77 93 134 101 139 168 180
271 274 277 271 268 274 282 278 274 284 293 296 311 323 328 333 339 341 342 345 352 356 345 350 342 349 4 7 9 1 337 39 52 115 176 255 108 85
266 272 268 273 270 270 280 274 279 289 296 306 320 320 320 323 337 337 342 345 344 345 347 348 351 355 350 351 350 280 24 356 313 127 136 141 116 131
264 260 261 267 267 262 267 273 280 284 292 299 295 299 306 314 333 330 340 341 347 339 334 351 8 16 26 28 27 162 69 43 330 238 211 187 148 161
271 267 265 266 270 262 261 268 270 268 265 271 280 293 299 312 331 324 336 333 339 336 352 6 23 17 31 12 332 24 25 42 62 75 123 211 239 176
Wind_Speed_850mb
44 44 31 27 29 30 34 39 40 60 68 57 62 57 46 56 60 65 68 68 66 70 70 72 69 69 64 58 59 59 57 59 57 51 49 49 63 62
43 32 24 29 32 37 40 41 45 51 68 60 59 53 55 63 71 78 65 71 74 70 68 62 62 65 62 60 62 62 59 57 59 54 50 48 60 60
35 34 30 31 33 32 35 39 44 45 57 64 62 62 63 71 72 61 61 66 63 60 60 61 60 65 66 54 59 60 62 58 59 56 50 48 51 59
21 26 31 33 38 42 47 49 55 59 62 66 64 61 57 62 60 56 56 57 59 59 56 54 60 59 60 54 49 52 59 60 58 55 49 51 48 48
26 31 35 40 43 42 45 52 59 48 45 53 66 67 59 54 57 57 59 55 53 52 50 51 52 54 55 59 64 50 49 50 52 49 46 50 47 48
29 35 39 36 40 46 57 55 48 48 52 53 57 59 58 59 55 57 55 59 61 54 55 55 51 51 52 42 36 45 41 46 41 39 41 46 41 42
28 31 30 37 46 44 47 49 51 55 59 52 56 61 59 61 57 55 62 56 58 52 50 50 48 43 49 45 42 46 45 41 31 37 36 38 35 36
26 30 35 33 34 40 37 42 49 56 57 52 55 57 58 60 48 58 62 64 63 61 54 56 49 50 45 42 40 30 29 25 30 39 32 26 30 31
26 29 34 28 40 43 51 55 58 42 36 43 51 50 56 59 64 67 60 55 57 58 52 62 52 54 49 41 42 40 31 32 35 35 32 22 25 21
23 33 33 32 45 51 51 58 53 39 32 37 44 49 55 61 48 44 49 55 57 50 47 53 53 53 48 44 39 42 48 43 43 40 31 20 15 17
33 25 29 37 46 49 55 55 49 43 25 37 50 43 38 36 37 46 50 52 55 60 52 43 44 45 43 32 31 34 35 37 32 29 28 22 14 11
25 27 32 36 44 50 54 48 47 40 46 43 34 37 32 34 34 35 39 45 50 58 44 45 39 34 25 18 28 27 25 28 25 22 25 23 13 9
34 33 21 41 46 47 42 39 36 42 37 39 40 36 36 36 38 32 28 40 51 53 56 41 42 32 31 37 38 25 21 22 18 16 23 16 9 24
36 36 31 35 38 32 32 30 32 31 36 46 33 38 41 39 40 36 35 39 40 45 46 27 36 32 29 35 34 25 16 11 15 12 16 19 18 14
34 31 28 32 31 28 28 29 32 35 37 45 39 39 36 39 41 36 35 33 33 33 37 13 25 27 23 26 30 36 22 11 7 15 12 17 22 20
35 31 37 42 22 27 27 28 32 31 34 36 45 35 34 36 38 35 35 38 37 36 42 11 18 22 27 21 19 25 21 14 5 3 22 18 14 15
42 48 49 28 26 31 25 26 30 30 34 36 39 38 37 39 33 29 35 34 32 35 34 36 44 20 16 19 23 16 19 14 2 8 14 23 22 19
50 49 42 26 28 34 30 22 29 30 35 39 29 31 35 39 32 29 34 33 33 30 30 36 37 36 15 14 16 13 16 9 9 9 10 21 23 26
47 44 34 24 32 34 29 23 29 33 38 27 34 25 32 30 32 30 27 33 33 26 26 31 32 32 27 31 3 4 16 15 9 13 5 3 17 24
44 44 36 31 32 33 29 26 34 39 35 27 31 20 26 28 26 34 28 29 29 35 26 25 28 25 19 22 17 7 2 6 6 8 10 2 2 11
44 47 43 34 33 36 37 35 41 40 31 24 23 24 23 24 19 25 31 28 23 28 25 31 25 14 7 8 22 6 4 3 1 3 5 7 6 7
40 42 46 47 44 40 40 41 42 33 23 24 26 30 21 24 15 22 22 32 27 27 25 16 20 17 17 15 22 3 10 10 2 4 4 5 10 14
43 43 45 43 39 42 47 47 42 35 30 31 28 25 21 21 13 19 18 23 23 29 24 15 19 18 15 13 10 13 11 8 7 3 1 3 4 2
Wind_Direction_850mb
298 300 291 283 294 287 289 297 297 295 299 303 303 310 302 294 297 292 295 295 295 292 290 290 290 287 284 283 280 285 292 287 285 290 292 270 260 259
297 291 291 288 290 298 300 296 295 294 296 302 304 304 298 295 298 296 289 290 293 295 294 296 293 289 285 281 276 282 290 292 284 283 290 285 266 264
300 306 309 309 309 302 300 301 303 305 303 303 303 304 302 303 304 300 298 298 298 298 294 292 289 292 287 287 273 279 287 291 288 279 282 286 278 271
309 309 305 303 298 300 298 294 288 288 295 304 304 304 310 307 307 307 306 299 297 300 297 296 296 289 290 287 280 284 288 287 286 278 277 276 287 277
314 306 300 299 299 297 288 290 298 301 301 300 300 300 306 307 309 305 305 308 302 304 297 294 298 299 296 288 267 275 285 281 277 277 275 278 284 279
288 304 304 303 293 294 299 310 312 308 307 303 301 304 307 309 311 312 314 308 308 307 302 301 294 290 298 294 279 277 281 280 280 280 274 276 285 292
309 301 295 294 300 304 312 314 309 315 315 308 304 308 312 314 313 310 309 315 314 312 309 307 306 301 292 292 286 273 267 275 287 297 275 271 286 290
307 291 293 305 305 307 303 299 306 307 307 307 307 308 309 307 314 311 311 313 311 307 313 303 305 303 302 296 289 291 282 264 300 301 298 271 281 293
294 295 297 299 289 291 294 301 306 310 305 307 306 308 308 309 308 307 306 305 301 307 309 301 302 298 299 293 288 291 300 293 296 299 290 268 274 284
286 282 293 294 286 301 308 313 317 313 304 311 303 300 300 304 307 307 306 305 309 309 314 301 303 297 304 287 280 275 271 280 288 293 278 282 245 263
280 293 291 291 292 304 312 317 318 322 312 292 292 297 310 308 313 311 311 307 303 314 315 307 306 304 304 291 295 281 272 272 279 283 264 261 217 237
292 279 285 293 296 306 313 316 319 325 326 330 334 333 323 322 315 309 317 313 313 312 308 308 312 316 322 319 335 296 263 266 273 267 249 249 219 210
283 291 276 287 295 304 310 316 326 330 332 338 334 327 328 321 315 311 315 320 321 310 314 295 299 301 290 306 306 308 305 268 261 276 233 227 253 196
294 294 278 285 308 313 316 330 338 337 339 330 336 334 325 327 325 324 322 323 328 330 328 280 278 292 296 299 305 314 275 262 253 263 226 218 222 211
298 301 296 308 322 331 338 338 329 334 323 331 336 328 331 331 329 325 321 325 335 345 341 280 269 279 274 288 305 317 357 326 238 236 223 216 214 215
299 299 299 312 308 317 322 320 313 322 320 326 317 329 331 331 331 337 337 339 342 352 9 343 327 292 285 287 289 313 332 332 311 205 200 204 198 221
282 285 289 294 290 300 296 301 310 316 317 310 323 335 334 332 337 347 349 338 340 344 355 6 356 309 289 286 282 301 318 317 189 156 178 193 193 198
275 278 279 277 277 292 299 303 304 309 301 315 327 325 327 334 344 354 350 348 342 341 355 3 355 353 350 300 283 302 332 295 179 114 135 173 188 197
274 279 282 268 276 284 291 290 293 293 299 309 311 326 327 334 347 344 344 348 346 355 2 359 356 6 17 26 354 295 16 77 93 134 101 139 168 180
271 274 277 271 268 274 282 278 274 284 293 296 311 323 328 333 339 341 342 345 352 356 345 350 342 349 4 7 9 1 337 39 52 115 176 255 108 85
266 272 268 273 270 270 280 274 279 289 296 306 320 320 320 323 337 337 342 345 344 345 347 348 351 355 350 351 350 280 24 356 313 127 136 141 116 131
264 260 261 267 267 262 267 273 280 284 292 299 295 299 306 314 333 330 340 341 347 339 334 351 8 16 26 28 27 162 69 43 330 238 211 187 148 161
271 267 265 266 270 262 261 268 270 268 265 271 280 293 299 312 331 324 336 333 339 336 352 6 23 17 31 12 332 24 25 42 62 75 123 211 239 176